Weather in Priozerny

Russia / Stavropol Krai     45°01′02″N   41°39′43″E
temp.,
°C
wind,
m/s
gust,
m/s
humid.,
%
clouds,
%
prec.,
mm/h
press.,
hPa
HPBL,
m
18 april, sun
sun1800:00+8ese2290100 0.1 102237
03:00+8e2392100 0.8 1020104
06:00+8ese3693100 0.3 1018221
09:00+10se3690100 0.9 1017278
12:00+15se1274100 0.0 1016487
15:00+16nnw4374100 0.1 1016523
18:00+13ne3488100 0.2 1016130
21:00+12ese119167 0.2 101616
19 april, mon
mon1900:00+11ssw1192100 0.0 101610
03:00+11sw1194100 0.1 101612
06:00+11w2296100 0.6 101619
09:00+12s2394100 1.9 1017201
12:00+13se2494100 0.9 1015179
15:00+18sse3468100 1.0 1013618
18:00+14ne1191100 0.9 101415
21:00+13ene1191100 1.0 101512
20 april, tue
tue2000:00+13e3493100 0.2 101371
03:00+12se41195100 0.3 1010278
06:00+11ese51286100 0.0 1005246
09:00+15ese41076100 0.0 1003235
12:00+22sse4955100 0.0 1002467
15:00+19nw7776100 0.6 1005824
18:00+16wnw6108193 0.4 1008726
21:00+12w61272100 0.7 1012740
21 april, wed
wed2100:00+10w31276100 0.2 1012545
03:00+10sw2683100 0.3 1014296
06:00+8wnw4108919 0.0 1017526
09:00+11w7127167 0.0 10181027
12:00+13wnw586598 0.0 10191417
15:00+12wnw2474100 0.1 1020882
18:00+11s2282100 0.3 102137
21:00+10sse228991 0.5 102270
22 april, thu
thu2200:00+9sse229384 0.0 102247
03:00+9se119197 0.0 102221
06:00+9e1189100 0.0 102214
09:00+10ene2484100 0.1 1023291
12:00+10e3588100 0.2 1023344
15:00+13ese567375 0.3 1022797
18:00+12se357871 0.0 1022552
21:00+8se229150 0.0 102212